Flag for France Weather past 2 weeks in Périgueux, France

Now
70 °F

Partly sunny.


Feels Like: 70 °F
Forecast: 56 / 74 °F
Wind: 6 mph from Northwest

Location: Bergerac Airport

Current Time: Sep 21, 2014 at 3:05:20 PM

Latest Report: Sep 21, 2014 at 2:30 PM


Visibility: N/A

Pressure: 30.12 "Hg

Humidity: 73%

Dew point: 61 °F

Location of PérigueuxLocation

Historic Weather in Périgueux — Graph

°F

Périgueux temperature yesterday

Maximum temperature yesterday: 84 °F (at 3:00 PM)
Minimum temperature yesterday: 59 °F (at 7:30 AM)
Average temperature yesterday: 69 °F

Past Weeks' High & Low Weather Summary

 TemperatureHumidityPressure
High88 °F (Sep 7, 4:30 PM)100% (Sep 7, 12:30 AM)30.12 "Hg (Sep 7, 12:30 AM)
Low45 °F (Sep 12, 8:00 AM)34% (Sep 12, 3:30 PM)29.65 "Hg (Sep 17, 5:00 PM)
Average68 °F77%29.91 "Hg
* Reported Sep 6 1:00 PM — Sep 21 1:30 PM, Périgueux, Weather by CustomWeather, © 2014

Note: Actual official high and low records may vary slightly from our data, if they occured in-between our weather recording intervals... More about our weather records

Advertising

Périgueux weather history for previous 24 hours

 ConditionsComfort  
Time TempWeatherWind HumidityBarometerVisibility
1:30 PM
Sep 21
68 °FOvercast.6 mph78%30.12 "HgN/A
1:00 PM68 °FOvercast.6 mph83%30.12 "HgN/A
12:30 PM66 °FOvercast.5 mph88%30.12 "HgN/A
12:00 PM66 °FOvercast.6 mph88%30.12 "HgN/A
11:30 AM64 °FOvercast.5 mph94%30.12 "HgN/A
11:00 AM64 °FLow clouds.3 mph94%30.12 "HgN/A
10:30 AM64 °FLow clouds.2 mph94%30.09 "Hg6 mi
10:00 AM63 °FFog.No wind100%30.09 "Hg2 mi
9:30 AM63 °FFog.No wind100%30.09 "Hg0 mi
9:00 AM61 °FFog.No wind100%30.09 "Hg0 mi
8:30 AM61 °FFog.1 mph100%30.09 "Hg0 mi
8:00 AM59 °FFog.No wind100%30.09 "Hg0 mi
7:30 AM59 °FFog.3 mph100%30.07 "Hg0 mi
7:00 AM59 °FFog.3 mph100%30.07 "Hg1 mi
6:30 AM59 °FLow clouds.1 mph100%30.07 "HgN/A
6:00 AM57 °FLow clouds.2 mph100%30.07 "HgN/A
5:30 AM57 °FPassing clouds.1 mph100%30.07 "HgN/A
5:00 AM55 °FFog.No wind100%30.07 "Hg0 mi
4:30 AM57 °FFog.3 mph94%30.07 "Hg2 mi
4:00 AM57 °FClear.No wind100%30.09 "HgN/A
3:30 AM57 °FClear.3 mph100%30.09 "HgN/A
3:00 AM59 °FClear.2 mph94%30.09 "HgN/A
2:30 AM59 °FClear.6 mph100%30.07 "HgN/A
2:00 AM59 °FClear.3 mph94%30.07 "HgN/A
1:30 AM59 °FClear.2 mph100%30.07 "HgN/A
1:00 AM61 °FClear.1 mph94%30.07 "HgN/A
12:30 AM61 °FClear.2 mph94%30.07 "HgN/A
12:00 AM63 °FClear.No wind94%30.07 "HgN/A
11:30 PM
Sep 20
63 °FMild.No wind94%30.04 "HgN/A
11:00 PM64 °FClear.No wind88%30.04 "HgN/A
10:30 PM64 °FClear.3 mph83%30.04 "HgN/A
10:00 PM64 °FClear.2 mph88%30.04 "HgN/A
9:30 PM66 °FClear.3 mph83%30.04 "HgN/A
9:00 PM68 °FClear.3 mph78%30.01 "HgN/A
8:30 PM70 °FClear.2 mph73%30.01 "HgN/A
8:00 PM72 °FMild.2 mph69%30.01 "HgN/A
7:30 PM75 °FMild.5 mph61%29.98 "HgN/A
3:30 PM84 °FClear.2 mph48%29.98 "HgN/A
3:00 PM84 °FClear.6 mph45%29.98 "HgN/A
Weather by CustomWeather, © 2014

See weather overviewHow to use our weather pages